Home   Weather   Messina   Past weeks

Flag for Italy Past Weather in Messina, Italy — Yesterday and Last 2 Weeks

Now
52 °F

Scattered clouds.


Feels Like: 49 °F
Forecast: 40 / 50 °F
Wind: 8 mph from South

Location: Reggio Calabria

Current Time: Jan 16, 2017 at 1:49:49 pm

Latest Report: Jan 16, 2017 at 12:50 pm


Visibility: N/A

Pressure: 29.62 "Hg

Humidity: 54%

Dew Point: 36 °F

Location of MessinaLocation

Past Weather in Messina — Graph

°F

Messina Temperature Yesterday

Maximum temperature yesterday: 54 °F (at 11:50 am)
Minimum temperature yesterday: 45 °F (at 6:00 am)
Average temperature yesterday: 50 °F

High & Low Weather Summary for the Past Weeks

 TemperatureHumidityPressure
High61 °F (Jan 13, 2:50 pm)100% (Jan 4, 2:58 pm)30.27 "Hg (Jan 4, 2:58 pm)
Low34 °F (Jan 6, 8:50 pm)27% (Jan 7, 7:50 am)29.56 "Hg (Jan 5, 1:50 pm)
Average48 °F61%29.98 "Hg
* Reported Jan 1 12:50 pm — Jan 16 11:50 am, Messina, Weather by CustomWeather, © 2017

Note: Actual official high and low records may vary slightly from our data, if they occured in-between our weather recording intervals... More about our weather records

Advertising

Messina Weather History for the Previous 24 Hours

Scroll right to see more
 ConditionsComfort  
Time TempWeatherWind HumidityBarometerVisibility
11:50 am
Mon, Jan 16
52 °FPassing clouds.15 mph54%29.62 "HgN/A
10:50 am50 °FPassing clouds.14 mph62%29.65 "HgN/A
9:50 am48 °FScattered clouds.15 mph66%29.65 "HgN/A
8:50 am48 °FScattered clouds.13 mph62%29.68 "HgN/A
7:50 am48 °FPartly sunny.14 mph62%29.68 "HgN/A
6:50 am48 °FPassing clouds.3 mph66%29.68 "HgN/A
6:00 am46 °FPassing clouds.1 mph66%29.68 "HgN/A
11:50 pm
Sun, Jan 15
45 °FPassing clouds.2 mph66%29.74 "HgN/A
10:50 pm48 °FPassing clouds.8 mph58%29.74 "HgN/A
9:50 pm46 °FPassing clouds.13 mph66%29.77 "HgN/A
8:50 pm50 °FPassing clouds.7 mph88%29.77 "HgN/A
7:50 pm50 °FPassing clouds.12 mph58%29.80 "HgN/A
6:50 pm50 °FPassing clouds.12 mph62%29.80 "HgN/A
5:50 pm50 °FPassing clouds.10 mph62%29.80 "HgN/A
4:50 pm50 °FScattered clouds.14 mph62%29.80 "HgN/A
3:50 pm52 °FPassing clouds.10 mph50%29.80 "HgN/A
2:50 pm54 °FSunny.9 mph47%29.80 "Hg10 mi
1:50 pm54 °FPassing clouds.13 mph51%29.83 "HgN/A
Weather by CustomWeather, © 2017

See weather overviewHow to use our weather pages